User: anonymous   Login
Location: Unspecified
(0.0000°N, 0.0000°E)
Time: 15:14:26
(UTC+00:00)
Language:

Orbcomm A3 (FM07) - Orbit

View from above orbital plane
View from above orbital plane
View from above satellite
View from above satellite

Ground track
Ground track

The orbit data is extracted from the following two-line orbital elements,

1 25119U 97084H   18051.64239390  .00000141  00000-0  91756-4 0  9995
2 25119  45.0161 129.4472 0002960 131.8554 228.2548 14.38685641 56097
Epoch (UTC): 20 February 2018 15:25:02
Eccentricity: 0.0002960
inclination: 45.0161°
perigee height: 761 km
apogee height: 765 km
right ascension of ascending node: 129.4472°
argument of perigee: 131.8554°
revolutions per day: 14.38685641
mean anomaly at epoch: 228.2548°
orbit number at epoch: 5609

The dashed part of the orbit path shows where the satellite is in the earth's shadow,  

DLR